Location: Blanot
(47.1713°N, 4.2340°E)
Time: 08:25:12
(UTC+00:00)

Cosmos 1741 Rocket - Pass Details

Date: 14 July 2020
Orbit: 761 x 783 km, 74.0° (Epoch: 15 August)

Event Time Altitude Azimuth Distance (km) Brightness Sun altitude
Exits shadow 03:04:20 - 206° (SSW) 2,385 6.0 -8.4°
Reaches altitude 10° 03:04:36 10° 206° (SSW) 2,288 5.9 -8.4°
Maximum altitude 03:09:47 77° 293° (WNW) 787 4.0 -7.7°
Drops below altitude 10° 03:15:02 10° 20° (NNE) 2,311 7.6 -7.1°
Sets 03:17:26 0° 22° (NNE) 3,244 8.6 -6.8°
